Regional Weather Roundup
Issued by NWS

Home | Current Version | Previous Version | Text Only | Print | Product List | Glossary On
Versions: 1 2 3 4 5 6 7 8 9 10 11 12 13 14 15 16 17 18 19 20 21 22 23 24 25 26 27 28 29 30 31 32 33 34 35 36 37 38 39 40 41 42 43 44 45 46 47 48 49 50
000
ASUS43 KLOT 270506
RWRIL

ILLINOIS REGIONAL WEATHER ROUNDUP
NATIONAL WEATHER SERVICE CHICAGO/ROMEOVILLE IL
1100 PM CST FRI DEC 26 2014

NOTE: "FAIR" INDICATES FEW OR NO CLOUDS BELOW 12,000 FEET WITH NO
SIGNIFICANT WEATHER AND/OR OBSTRUCTIONS TO VISIBILITY.

* THESE STATIONS ARE NOT UNDER NWS QUALITY CONTROL. THEY ALSO MAY NOT
  REPORT WEATHER SUCH AS PRECIPITATION OR FOG.

ILZ001-002-007-009-015-016-024-270600-
NORTHWEST ILLINOIS

CITY           SKY/WX    TMP DP  RH WIND       PRES   REMARKS
MOLINE         LGT RAIN  44  40  85 E5        29.95F
STERLING*      CLOUDY    45  39  81 S3        29.99S
SAVANNA*       CLOUDY    42  37  83 E5        29.97F
$$

ILZ003-004-008-010-011-017-018-270600-
NORTH CENTRAL ILLINOIS

CITY           SKY/WX    TMP DP  RH WIND       PRES   REMARKS
ROCKFORD       CLOUDY    43  39  86 CALM      30.02S
FREEPORT*      CLOUDY    40  38  89 SE5       30.00F
ROCHELLE*      CLOUDY    42  40  95 E8        30.00F
DE KALB*       CLOUDY    41  40  94 S6        30.01F
PERU*          CLOUDY    46  42  86 S10       30.01S
$$

ILZ005-006-012>014-019>023-270600-
NORTHEAST ILLINOIS

CITY           SKY/WX    TMP DP  RH WIND       PRES   REMARKS
CHICAGO-OHARE  CLOUDY    46  41  82 S8        30.02R
CHICAGO-MIDWAY CLOUDY    48  43  82 S8        30.03S
AURORA         CLOUDY    46  40  79 S8        30.02S
LANSING*       CLOUDY    46  42  85 S10G16    30.05S
JOLIET*        CLOUDY    46  42  86 S9        30.03S
WAUKEGAN       CLOUDY    44  38  79 SE3       30.01S
DUPAGE AIRPORT CLOUDY    46  42  86 S7        30.01F
KANKAKEE*      PTCLDY    43  41  92 S8        30.05S
WHEELING       CLOUDY    47  42  83 S6        30.04R
MORRIS*        CLOUDY    44  42  95 S9        30.02S
ROMEOVILLE*    CLOUDY    45  43  92 S12       30.03S
NORTHERLY ISL    N/A     47  41  80 S7          N/A
$$

LMZ740>746-270600-
SOUTHERN LAKE MICHIGAN

STATION/POSITION SKY/WX   TEMP    WIND        PRES    VSBY  WAVE
                          AIR SEA DIR/SP/G                  HT/PER
                          (F)     (DEG/KT/KT) (MB)    (MI)  (FT/S)
WAUKEGAN HARBOR            42     200/  2/  5   N/A
HARRISON CRIB              46     170/ 17/ 18   N/A
BURNHAM HARBOR             47     190/  6/  9   N/A
CALUMET HARBOR             47     160/  7/ 12 1016.0F
MICHIGAN CITY              47     160/ 11/ 14   N/A
$$

ILZ025>027-034>036-040-047-049-050-058-095>099-270600-
WEST-CENTRAL ILLINOIS

CITY           SKY/WX    TMP DP  RH WIND       PRES   REMARKS
QUINCY         CLOUDY    51  46  83 S13       29.97S
GALESBURG*     CLOUDY    47  43  86 S10       29.97S
MACOMB*        CLOUDY    47  44  87 S9        29.99F
JACKSONVILLE*  CLOUDY    50  46  85 S10       30.02S
PITTSFIELD*    CLOUDY    51  47  86 S13       30.02S
$$

ILZ028>032-037-038-041>044-048-051>054-059>061-270600-
CENTRAL ILLINOIS

CITY           SKY/WX    TMP DP  RH WIND       PRES   REMARKS
PONTIAC        PTCLDY    43  42  95 S9        30.03S
BLOOMINGTON    PTCLDY    45  43  93 S15       30.04R
DECATUR        CLOUDY    49  43  80 S14       30.06S
PEORIA         MOCLDY    47  42  83 S12       30.01R
LACON*         CLOUDY    46  42  83 S9        30.01R
LINCOLN*       CLOUDY    48  43  82 S10       30.04R
SPRINGFIELD    LGT RAIN  48  45  89 S15       30.04R FOG
TAYLORVILLE    CLOUDY    46  43  87 S12       30.05S
$$

ILZ033-039-045-046-055>057-062-063-270600-
EAST-CENTRAL ILLINOIS

CITY           SKY/WX    TMP DP  RH WIND       PRES   REMARKS
CHAMPAIGN      CLOUDY    48  43  82 S10       30.06F
DANVILLE*      LGT RAIN  47  43  84 SW10      30.06S
RANTOUL*       CLOUDY    49  45  87 S12       30.07R
MATTOON        MOCLDY    48  42  80 S13       30.06F
PARIS*         CLOUDY    48  44  84 S13       30.10S
$$

ILZ079-100>102-270600-
SOUTHWEST ILLINOIS

CITY           SKY/WX    TMP DP  RH WIND       PRES   REMARKS
ALTON          RAIN      48  42  78 S13       30.07R
BELLEVILLE     LGT RAIN  50  43  76 S8        30.08R
CAHOKIA*       RAIN      49  44  83 S6        30.08R
SPARTA*        LGT RAIN  49  39  67 S13G21    30.10R
$$

ILZ064>066-069>071-074>076-080>082-084>086-088>090-092>094-270600-
SOUTH-CENTRAL ILLINOIS

CITY           SKY/WX    TMP DP  RH WIND       PRES   REMARKS
CARBONDALE     CLOUDY    50  38  63 S13       30.13S
CAIRO*         CLOUDY    50  40  69 SE6       30.15F
EFFINGHAM*     PTCLDY    49  38  67 SE7       30.10F
MARION         CLOUDY    50  39  66 S13G21    30.12F
MT. VERNON     MOCLDY    46  36  66 S10       30.12S
CENTRALIA*     MOCLDY    49  38  66 S12       30.08S
SALEM*         MOCLDY    51  40  68 S10       30.10R
METROPOLIS*    CLOUDY    48  40  72 CALM      30.17S
$$

ILZ067-068-072-073-078-083-087-091-270600-
SOUTHEAST ILLINOIS

CITY           SKY/WX    TMP DP  RH WIND       PRES   REMARKS
LAWRENCEVILLE  PTCLDY    44  40  85 S8        30.15R
FLORA*         PTCLDY    47  40  75 S12       30.10F
FAIRFIELD*     PTCLDY    47  40  74 S8        30.11F
HARRISBURG*    CLOUDY    50  38  62 S13       30.16S
ROBINSON*      CLOUDY    46  40  81 S6        30.15R
CARMI*         CLOUDY    49  41  72 S12       30.14S
$$

ABBREVIATIONS USED IN REMARKS
   TC - TEMPERATURE IN CELSIUS
  WCI - WIND CHILL INDEX
   HX - HEAT INDEX
  VSB - VISIBILITY
$$



USA.gov is the U.S. government's official web portal to all federal, state and local government web resources and services.